EW3326 Weather Reports


Display with metric or nautical units.
time (UTC)temp
F
wind
direction
speed
MPH
gust
MPH
rain 1hr
in
rain 24hr
in
rain mn
in
humidity
%
barometer
mb
20230204051539 -9 257 3.0 12.0 0.00 0.00 0.00 41 1025.4
20230204050022 -9 353 5.0 13.0 0.00 0.00 0.00 40 1025.2
20230204044522 -9 256 5.0 13.0 0.00 0.00 0.00 41 1025.2
20230204043014 -9 271 4.0 14.0 0.00 0.00 0.00 40 1024.7
20230204041507 -8 297 5.0 14.0 0.00 0.00 0.00 40 1024.1
20230204040003 -8 5 3.0 14.0 0.00 0.00 0.00 40 1024.2
20230204034612 -7 69 4.0 18.0 0.00 0.00 0.00 39 1024.0
20230204033057 -7 6 4.0 12.0 0.00 0.00 0.00 41 1023.8
20230204031550 -6 351 5.0 12.0 0.00 0.00 0.00 40 1023.4
20230204030046 -6 222 2.0 8.0 0.00 0.00 0.00 40 1023.2
20230204024540 -5 352 5.0 12.0 0.00 0.00 0.00 40 1022.6
20230204023036 -3 29 3.0 11.0 0.00 0.00 0.00 41 1022.0
20230204021532 -3 333 4.0 17.0 0.00 0.00 0.00 38 1021.5
20230204020038 -1 240 5.0 19.0 0.00 0.00 0.00 38 1021.0
20230204014526 -1 11 5.0 17.0 0.00 0.00 0.00 32 1020.5
20230204013018 0 330 6.0 16.0 0.00 0.00 0.00 34 1020.0
20230204011514 0 290 6.0 24.0 0.00 0.00 0.00 33 1019.3
20230204010013 0 206 5.0 14.0 0.00 0.00 0.00 32 1019.3
20230204004505 0 19 3.0 14.0 0.00 0.00 0.00 33 1019.0
20230204003101 1 283 4.0 21.0 0.00 0.00 0.00 32 1018.7
20230204001558 2 116 7.0 21.0 0.00 0.00 0.00 33 1018.2
20230204000052 3 120 3.0 17.0 0.00 0.00 0.00 34 1018.0
20230203234545 3 164 4.0 15.0 0.00 0.00 0.00 36 1017.7
20230203233041 4 203 3.0 10.0 0.00 0.00 0.00 36 1017.3
20230203231537 4 274 4.0 17.0 0.00 0.00 0.00 35 1016.9
20230203230032 4 247 2.0 17.0 0.00 0.00 0.00 36 1016.5
20230203224527 5 308 4.0 15.0 0.00 0.00 0.00 34 1016.1
20230203223023 5 259 5.0 17.0 0.00 0.00 0.00 35 1015.8
20230203221518 6 260 6.0 18.0 0.00 0.00 0.00 34 1015.3
20230203220015 7 272 4.0 11.0 0.00 0.00 0.00 34 1014.6
20230203214508 8 216 4.0 12.0 0.00 0.00 0.00 32 1014.0
20230203213004 9 328 5.0 18.0 0.00 0.00 0.00 31 1013.3
20230203211607 10 104 5.0 19.0 0.00 0.00 0.00 28 1012.9
20230203210101 11 170 2.0 11.0 0.00 0.00 0.00 31 1012.4
20230203204556 12 302 6.0 17.0 0.00 0.00 0.00 28 1012.0
20230203203047 13 225 4.0 14.0 0.00 0.00 0.00 26 1011.6
20230203201542 14 250 7.0 15.0 0.00 0.00 0.00 25 1011.0
20230203200037 14 326 5.0 18.0 0.00 0.00 0.00 26 1010.7
20230203194535 15 5 6.0 14.0 0.00 0.00 0.00 28 1010.6
20230203193028 15 220 4.0 11.0 0.00 0.00 0.00 29 1010.3
20230203191524 15 209 5.0 13.0 0.00 0.00 0.00 28 1010.1
20230203190019 16 104 4.0 10.0 0.00 0.00 0.00 26 1010.0
20230203184514 15 257 3.0 20.0 0.00 0.00 0.00 27 1009.9
20230203183010 16 271 5.0 19.0 0.00 0.00 0.00 27 1009.8
20230203181505 16 316 3.0 15.0 0.00 0.00 0.00 27 1009.7
20230203180002 17 8 3.0 10.0 0.00 0.00 0.00 28 1009.6
20230203174556 17 211 4.0 12.0 0.00 0.00 0.00 28 1009.5
20230203173055 16 276 5.0 15.0 0.00 0.00 0.00 29 1009.7
20230203171547 16 328 6.0 14.0 0.00 0.00 0.00 28 1009.8
20230203170043 17 148 3.0 12.0 0.00 0.00 0.00 30 1009.5
20230203164537 17 288 4.0 14.0 0.00 0.00 0.00 29 1009.3
20230203163045 16 162 5.0 12.0 0.00 0.00 0.00 29 1009.6
20230203161542 17 262 3.0 17.0 0.00 0.00 0.00 31 1009.8
20230203160024 17 184 4.0 15.0 0.00 0.00 0.00 32 1009.9
20230203154520 17 285 4.0 11.0 0.00 0.00 0.00 32 1009.9
20230203153015 17 209 5.0 9.0 0.00 0.00 0.00 35 1009.8
20230203151510 17 330 2.0 15.0 0.00 0.00 0.00 40 1009.8
20230203150006 17 188 3.0 14.0 0.00 0.00 0.00 39 1009.9
20230203144503 17 78 6.0 13.0 0.00 0.00 0.00 36 1009.8
20230203143058 18 212 3.0 19.0 0.00 0.00 0.00 37 1009.6
20230203141558 18 285 3.0 12.0 0.00 0.00 0.00 38 1009.4
20230203140049 17 285 2.0 14.0 0.00 0.00 0.00 39 1008.8
20230203134544 17 186 5.0 19.0 0.00 0.00 0.00 36 1008.6
20230203133040 18 241 3.0 13.0 0.00 0.00 0.00 36 1008.6
20230203131535 19 314 2.0 13.0 0.00 0.00 0.00 39 1008.5
20230203130031 19 239 3.0 11.0 0.00 0.00 0.00 37 1008.2
20230203124527 20 290 3.0 12.0 0.00 0.00 0.00 41 1007.9
20230203123026 20 44 3.0 12.0 0.00 0.00 0.00 45 1007.6
20230203121518 22 262 3.0 9.0 0.00 0.00 0.00 48 1007.2
20230203120015 23 268 4.0 13.0 0.00 0.00 0.00 50 1006.7
20230203114509 24 238 4.0 16.0 0.00 0.00 0.00 59 1006.2
20230203113005 24 106 4.0 12.0 0.00 0.00 0.00 67 1005.8
20230203111501 26 306 5.0 14.0 0.00 0.00 0.00 66 1005.4
20230203110059 28 248 5.0 11.0 0.00 0.00 0.00 60 1004.7
20230203104559 28 184 2.0 12.0 0.00 0.00 0.00 60 1004.2
20230203103048 29 257 4.0 10.0 0.00 0.00 0.00 65 1003.8
20230203101543 30 18 3.0 12.0 0.00 0.00 0.00 62 1003.6
20230203100050 30 207 1.0 8.0 0.00 0.00 0.00 59 1003.7
20230203094540 30 170 3.0 8.0 0.00 0.00 0.00 57 1003.5
20230203093038 30 221 1.0 8.0 0.00 0.00 0.00 57 1003.2
20230203091541 30 216 2.0 8.0 0.00 0.00 0.00 56 1002.9
20230203090036 30 241 1.0 6.0 0.00 0.00 0.00 57 1002.7
20230203084535 30 238 1.0 7.0 0.00 0.00 0.00 57 1002.5
20230203083135 29 206 1.0 3.0 0.00 0.00 0.00 57 1002.4
20230203081539 29 257 1.0 3.0 0.00 0.00 0.00 57 1002.4
20230203080034 30 214 2.0 6.0 0.00 0.00 0.00 56 1002.4
20230203074530 30 229 2.0 4.0 0.00 0.00 0.00 56 1002.6
20230203073029 29 217 1.0 5.0 0.00 0.00 0.00 57 1002.7
20230203071528 29 212 0.0 4.0 0.00 0.00 0.00 58 1002.9
20230203070041 29 223 0.0 3.0 0.00 0.00 0.00 58 1003.2
20230203064526 29 224 0.0 6.0 0.00 0.00 0.00 58 1003.2
20230203063022 29 229 1.0 3.0 0.00 0.00 0.00 58 1003.3
20230203061520 30 214 1.0 5.0 0.00 0.00 0.00 57 1003.3
20230203060018 30 262 2.0 5.0 0.00 0.00 0.00 58 1003.6
20230203054516 30 217 2.0 5.0 0.00 0.00 0.00 58 1003.7
20230203053014 30 335 1.0 6.0 0.00 0.00 0.00 58 1003.9